Location: Recife
(8.0585°S, 34.8848°W)
Time: 19:35:07
(UTC-03:00)

Vanguard 2 Rocket - Pass Details

Date: 23 April 2026
Orbit: 553 x 3286 km, 32.9° (Epoch: 13 May)

Event Time Altitude Azimuth Distance (km) Brightness Sun altitude
Exits shadow 03:08:24 20° 155° (SSE) 1,909 8.6 -33.2°
Drops below altitude 10° 03:10:52 10° 141° (SE) 2,782 9.7 -32.6°
Sets 03:14:34 0° 133° (SE) 4,166 10.8 -31.7°
